www.pogodaiklimat.ru

Погода и климат >> Архив погоды >> Ирак >> Эр-Рамади


ПОГОДА в Эр-Рамади

  • Прогноз погоды в Эр-Рамади
  • Монитор погоды в Эр-Рамади

АРХИВ ПОГОДЫ в Эр-Рамади

Время (UTC), дата Ветер
(напр.,м/с)
 
Видим.   Явления Облачность Т
(С)
Тd
(С)
f
(%)
Тe
(С)
Тes
(С)
Комфортность P
(гПа)
Po
(гПа)
Тmin
(С)
Tmax
(С)
R
(мм)
R24
(мм)
S
(см)
18 9.06 штиль 0 10 км 3/0
[Ci sp]
+36.6 +27.3 59 +55 +55 опасность
перегрева
1003.1 997.8 +46.8
03 10.06 штиль 0 10 км 4/0
[Ci fib]
+30.4 +22.5 63 +40 +41 очень
душно
1003.4 998.0
06 10.06 С 1 10 км 3/0
[Ci fib]
+36.5 +18.5 35 +41 +54 опасность
перегрева
1003.8 998.5 +30.0
09 10.06 СЗ 2 10 км ясно +43.6 +23.2 32 +53 +74 опасность
перегрева
1003.1 997.9
12 10.06 СЗ 2 10 км 1/0
[Ci fib]
+46.6 +23.7 28 +56 +69 опасность
перегрева
1001.9 996.8
15 10.06 СЗ 1 10 км 1/0
[Ac trans]
+45.6 +23.2 29 +55 +56 опасность
перегрева
1001.3 996.2
18 10.06 штиль 0 10 км 3/0
[Ac trans]
+37.0 +27.5 58 +56 +56 опасность
перегрева
1001.8 996.5 +47.3
03 11.06 СЗ 5 10 км 3/0
[Ac trans]
+31.0 +13.4 34 +32 +33 жарко 1004.4 999.0
06 11.06 СЗ 5 10 км ясно +33.4 +18.2 41 +38 +44 очень
душно
1006.4 1001.0 +30.2
09 11.06 СЗ 4 10 км ясно +41.0 +11.9 18 +40 +55 опасность
солнечного
удара
1005.3 1000.1
12 11.06 СЗ 2 10 км ясно +43.2 +9.9 14 +42 +55 опасность
перегрева
1004.3 999.1
15 11.06 СЗ 3 10 км ясно +42.0 +12.7 18 +42 +43 опасность
перегрева
1003.8 998.6
18 11.06 С 2 10 км ясно +35.2 +13.7 28 +36 +36 очень
жарко
1005.4 1000.1 +44.0
03 12.06 С 2 10 км ясно +27.0 +21.0 70 +34 +35 очень
душно
1008.6 1003.1
06 12.06 С 3 10 км ясно +34.0 +19.2 42 +39 +50 очень
душно
1008.7 1003.3 +26.8
09 12.06 С 2 10 км ясно +39.0 +13.1 22 +39 +61 опасность
солнечного
удара
1007.6 1002.3
12 12.06 С 2 10 км ясно +40.4 +15.0 23 +42 +55 опасность
перегрева
1006.1 1000.9
15 12.06 С 2 10 км ясно +40.0 +14.8 23 +41 +42 опасность
перегрева
1005.5 1000.2
18 12.06 штиль 0 10 км ясно +34.0 +22.4 51 +43 +43 опасность
перегрева
1006.6 1001.2 +41.0
03 13.06 С 2 10 км ясно +26.0 +16.3 55 +29 +30 душно 1006.7 1001.2
06 13.06 С 2 10 км ясно +33.0 +12.2 28 +33 +46 жарко 1007.5 1002.1 +25.8
09 13.06 штиль 0 10 км ясно +37.8 +18.5 32 +42 +71 опасность
перегрева
1006.8 1001.5
12 13.06 штиль 0 10 км ясно +40.2 +16.9 26 +43 +61 опасность
перегрева
1005.2 1000.0
15 13.06 С 2 10 км ясно +40.3 +20.8 33 +47 +48 опасность
перегрева
1005.9 1000.6
03 14.06 СЗ 2 10 км ясно +26.9 +16.8 54 +31 +32 душно 1004.7 999.2
06 14.06 СЗ 1 10 км ясно +35.2 +15.5 31 +37 +52 опасность
солнечного
удара
1004.9 999.6 +26.7
09 14.06 З 1 10 км ясно +40.1 +18.3 28 +43 +69 опасность
перегрева
1004.4 999.2
12 14.06 С 2 10 км ясно +42.5 +18.7 26 +46 +60 опасность
перегрева
1002.4 997.2
15 14.06 СЗ 2 10 км 1/0
[Ac trans]
+41.6 +21.0 31 +48 +49 опасность
перегрева
1001.8 996.6
18 14.06 штиль 0 10 км 3/0
[Ac trans]
+35.9 +23.2 48 +46 +46 опасность
перегрева
1002.1 996.8 +43.6
03 15.06 СЗ 2 10 км ясно +29.0 +19.3 56 +35 +36 очень
душно
1003.0 997.6
06 15.06 С 1 10 км ясно +36.0 +17.6 34 +39 +54 опасность
солнечного
удара
1003.5 998.2 +28.7
09 15.06 штиль 0 10 км ясно +41.0 +19.0 28 +45 +74 опасность
перегрева
1002.5 997.3
12 15.06 С 1 10 км ясно +43.8 +20.2 26 +49 +65 опасность
перегрева
1001.2 996.0
15 15.06 С 2 10 км ясно +42.8 +21.2 29 +49 +50 опасность
перегрева
1000.6 995.4
06 16.06 штиль 0 10 км ясно +34.8 +18.3 38 +39 +56 опасность
солнечного
удара
1001.4 996.1 +30.0
09 16.06 Ю 1 10 км ясно +42.8 +16.8 22 +45 +70 опасность
перегрева
1000.4 995.2
12 16.06 штиль 0 10 км ясно +45.0 +20.8 26 +51 +69 опасность
перегрева
999.2 994.1
15 16.06 С 2 10 км ясно +43.6 +20.0 26 +48 +50 опасность
перегрева
999.2 994.0

 

Местоположение метеостанции Эр-Рамади (Ирак): широта 33.45 долгота 43.32 высота над уровнем моря 48 м.

В архиве по умолчанию представлена погода в Эр-Рамади за последнюю неделю. Архивные данные за месяц целиком и за предыдущие месяцы, начиная с января 2011 года, Вы можете получить, выбрав интересующий диапазон дат из раскрывающегося списка и нажав кнопку "Ввод!".


*Определитесь, кто Вы:
робот инопланетянин человек

Внимание! Время в таблицах - всемирное. Для получения местного времени необходимо прибавить поправку, которая равна 3 ч.

Смотрите также архив погоды в соседних городах и на ближайших метеорологических станциях:

Погода в Хите (Ирак) (45 км)
Погода в Багдаде (Ирак) (88 км)
Погода в Хадите (Ирак) (112 км)
Погода в Кербеле (Ирак) (113 км)
Погода в Эль-Халисе (Ирак) (120 км)
Погода в Тикрите (Ирак) (129 км)
Погода в Айн Аль-Тамаре (Ирак) (130 км)
Погода в Хелле (Ирак) (153 км)
Погода в Бейджи (Ирак) (165 км)
Погода в Ане (Ирак) (170 км)

Пояснения к столбцам:

Ветер - указаны скорость ветра в м/с - средняя за 10 мин, порывы в срок и между сроками (в фигурных скобках) и направление, откуда дует ветер: С - северный, СВ - северо-восточный, В - восточный, ЮВ - юго-восточный, Ю - южный, ЮЗ - юго-западный, З - западный, СЗ - северо-западный.
Видимость - горизонтальная дальность видимости в метрах или километрах. При видимости от 1 до 10 км при отсутствии осадков обычно наблюдается дымка, при ухудшении видимости до 1 км и менее - туман. В сухую погоду видимость может ухудшаться дымом, пылью или мглою.
Явления - указаны атмосферные явления, наблюдавшиеся в срок или в последний час перед сроком; фигурными скобками обозначены явления, наблюдавшиеся между сроками (за 1-3 часа до срока); квадратными скобками обозначены град или гололедные отложения с указанием их диаметра в мм.
Облачность - указаны через наклонную черту общая и нижняя облачность в баллах и высота нижней границы облаков в метрах; квадратными скобками обозначены формы облаков: Ci - перистые, Cs - перисто-слоистые, Cc - перисто-кучевые, Ac - высококучевые, As - высокослоистые, Sc - слоисто-кучевые, Ns - слоисто-дождевые, Cu - кучевые, Cb - кучево-дождевые. Подробнее классификацию облаков см. в Атласе облаков (PDF).
T - Температура воздуха - температура, измеренная на высоте 2 м над землей.
Td - Температура точки росы - температура, при понижении до которой содержащийся в воздухе водяной пар достигнет насыщения.
f - Относительная влажность воздуха - влажноcть воздуха, измеренная на высоте 2 м над землей.
Te - Эффективная температура - температура, которую ощущает одетый по сезону человек в тени. Характеристика душности погоды. При расчете учитывается влияние влажности воздуха и скорости ветра на теплоощущения человека.
Tes - Эффективная температура на солнце - температура, которую ощущает человек, с поправкой на солнечный нагрев. Характеристика знойности погоды. Зависит от высоты солнца над горизонтом, облачности и скорости ветра. Ночью, в пасмурную погоду, а также при ветре 12 м/с и более поправка равна нулю.
P - Атмосферное давление - приведенное к уровню моря атмосферное давление.
Po - Атмосферное давление - измеренное на уровне метеостанции атмосферное давление.
Tmin - Минимальная температура - минимум температуры воздуха на высоте 2 м над землей.
Tmax - Максимальная температура - максимум температуры воздуха на высоте 2 м над землей.
R - Количество осадков - Количество выпавших осадков за период времени, мм. При наведении курсора мыши на число - период времени, за который выпало указанное количество осадков.
R24 - Количество осадков - Количество выпавших осадков за 24 часа, мм.
S - Снежный покров - Высота снежного покрова, см. При наведении курсора мыши на число - состояние снежного покрова и степень покрытия местности в баллах.